Regional Weather Roundup
Issued by NWS Upton, NY

Current Version | Previous Version | Text Only | Print | Product List | Glossary On
Versions: 1 2 3 4 5 6 7 8 9 10 11 12 13 14 15 16 17 18 19 20 21 22 23 24 25 26 27 28 29 30 31 32 33 34 35 36 37 38 39 40 41 42 43 44 45 46 47 48 49 50
842
ASUS41 KOKX 190009
RWROKX

REGIONAL WEATHER ROUNDUP
NATIONAL WEATHER SERVICE NEW YORK NY
800 PM EDT WED OCT 18 2017

NOTE: "FAIR" INDICATES FEW OR NO CLOUDS BELOW 12,000 FEET WITH NO
SIGNIFICANT WEATHER AND/OR OBSTRUCTIONS TO VISIBILITY.

NYZ071-072-176-178-NJZ106-104-190100-
NEW YORK CITY METRO AREA

CITY           SKY/WX    TMP DP  RH WIND       PRES   REMARKS
Central Park   CLEAR     64  50  60 SW3       30.30R
Bronx Bot Gard   N/A     61  50  67 E3        30.29F
LaGuardia APRT CLEAR     65  52  62 S8        30.27R
Kennedy INTL   CLEAR     62  57  83 S12       30.29R
Breezy Point     N/A     63 N/A N/A S8          N/A
Newark/Liberty CLEAR     66  47  50 S7        30.27R
Teterboro      CLEAR     63  51  65 S3        30.26R
$$

NYZ177-179-078>081-190100-
LONG ISLAND NEW YORK

CITY           SKY/WX    TMP DP  RH WIND       PRES   REMARKS
Jones Beach      N/A     63 N/A N/A SW6         N/A
Matinecock PT    N/A     63 N/A N/A S6          N/A
Farmingdale    CLEAR     61  52  72 SW5       30.29R
MacArthur/ISP  CLEAR     58  54  86 SW3       30.28S
Shirley        CLEAR     58  53  84 CALM      30.29R
Mt Sinai Harb    N/A    N/A N/A N/A SW8         N/A
Westhampton    CLEAR     50  45  83 CALM      30.30R
East Hampton   FAIR      53  51  93 CALM      30.28S
Montauk          N/A     60  55  83 VRB3      30.30R
$$

NYZ052-065-067-190100-
HUDSON VALLEY

CITY           SKY/WX    TMP DP  RH WIND       PRES   REMARKS
White Plains   CLEAR     58  49  72 S5        30.27R
Larchmont Harb   N/A     63 N/A N/A S10         N/A
Croton On Huds   N/A     59 N/A N/A E2          N/A
Newburgh       CLEAR     57  52  82 CALM      30.27R
Montgomery     CLEAR     53  49  86 CALM      30.25R
Poughkeepsie   CLEAR     53  48  83 CALM      30.25R
Albany         CLEAR     55  48  77 CALM      30.24R
$$

NJZ001-105-106-008-010-013-015-019>022-104-190100-
NEW JERSEY

CITY           SKY/WX    TMP DP  RH WIND       PRES   REMARKS
Newark/Liberty CLEAR     66  47  50 S7        30.27R
Teterboro      CLEAR     63  51  65 S3        30.26R
Caldwell       CLEAR     58  50  75 CALM      30.28R
Somerville     CLEAR     54  49  83 CALM      30.26R
Linden         FAIR      64  45  48 CALM      30.28R
Perth Amboy      N/A     64 N/A N/A SW8         N/A
Sussex         CLEAR     54  50  86 CALM      30.27R
Andover          N/A     53  49  86 S3        30.28R
Trenton        CLEAR     62  47  57 SW3       30.28R
Millville      CLEAR     54  51  90 CALM      30.31S
Atlantic City  CLEAR     58  48  69 SW5       30.31R
Wrightstown    CLEAR     55  49  79 CALM      30.27R
Toms River       N/A     51  48  89 S3        30.30S
Belmar         CLEAR     60  50  69 S7        30.30R
$$

PAZ047>061-062-071-190100-
EASTERN PENNSYLVANIA

CITY           SKY/WX    TMP DP  RH WIND       PRES   REMARKS
Philadelphia   CLEAR     64  46  52 SW8       30.30R
Allentown      CLEAR     58  45  62 S3        30.28R
Scranton       CLEAR     57  44  62 S3        30.28R
$$

CTZ002-004>006-009-010-012-RIZ004-006-007-MAZ004-011-015-190100-
SOUTHERN NEW ENGLAND
 IN CT

CITY           SKY/WX    TMP DP  RH WIND       PRES   REMARKS
Bradley INTL   CLEAR     58  47  66 S6        30.26R
Hartford       CLEAR     59  49  69 S3        30.26R
Danbury        CLEAR     54  48  80 CALM      30.28S
Wtrbury/Oxford CLEAR     57  49  74 CALM      30.28S
Norwalk Harbor   N/A     64 N/A N/A SW10        N/A
Bridgeport     CLEAR     65  53  65 SW8       30.27R
Meriden        CLEAR     52  48  86 CALM      30.27R
New Haven      CLEAR     64  53  67 SW6       30.28R
Chester        FAIR      59  54  82 SW7       30.28S
Groton         CLEAR     61  53  75 SW7       30.28R
Wilimantic     CLEAR     58  50  75 CALM      30.27R

 IN RI

CITY           SKY/WX    TMP DP  RH WIND       PRES   REMARKS
Providence     CLEAR     59  50  72 SW3       30.27R
Block Island   CLEAR     60  55  83 SW12      30.29R
Westerly       CLEAR     60  54  80 SW5       30.29R
 IN MA

CITY           SKY/WX    TMP DP  RH WIND       PRES   REMARKS
Boston         PTCLDY    62  43  49 SE5       30.25S
Worcester      CLEAR     57  42  57 SW5       30.27R
Westfield      CLEAR     51  47  86 S3        30.26R
Provincetown   CLEAR     56  48  74 SE7       30.28R
Nantucket      CLEAR     56  56 100 SW8       30.29R
$$

ANZ330-335-338-340-345-350-353-355-190100-
COASTAL MARINE OBSERVATIONS


STATION/POSITION TIME  SKY/WX   TEMP    WIND        PRES    VSBY  WAVE
                                AIR SEA DIR/SP/G                  HT/PER
                 (UTC)          (F)     (DEG/KT/KT) (MB)    (MI)  (FT/S)
NY HARB ENTRANCE 2350            65 65  200/ 14/ 16 1024.6          3/10
20 S FIRE ISLAND 2350            64 64  230/ 12/ 14 1025.6          3/ 8
GREAT SOUTH BAY  2330            63 62  230/  6/  8   N/A
15 E BARNEGAT LI 2300               66                N/A           3/11
HUDSON CANYON    2350            64 65  240/ 12/ 14 1025.9          3/10
KINGS POINT      2342            63 65  190/  8/ 10 1025.8
EXECUTION ROCKS  2330            65     170/ 10/ 12   N/A
WESTERN LI SOUND 2245            67     200/ 12/ 14   N/A           0
CENTRAL LI SOUND 2315            65     220/ 12/ 14   N/A           1
EASTERN LI SOUND NOT AVBL
ROBBINS REEF     2342            68     200/ 11/ 13 1025.6
$$


>>>>>>>>>>>>>>>>>>>>>>>>>>>> KEY <<<<<<<<<<<<<<<<<<<<<<<<<<<
>                                                          <
>     SKY/WX - Sky Condition/Present Weather               <
>     TMP    - Temperature in Fahrenheit                   <
>     DP     - Dew Point in Fahrenheit                     <
>     RH     - Relative Humidity in Percent                <
>     WIND   - Direction (from) and Speed in MPH           <
>     PRES   - Mean Sea Level Pressure (inches of Hg)      <
>     WCI    - Wind Chill Index                            <
>     VSB    - VISIBILITY IN MILES                         <
>     HX     - HEAT INDEX                                  <
>     TC     - TEMPERATURE IN CELSIUS                      <
>     VRB    - VARIABLE WIND DIRECTION                     <
>                                                          <
>>>>>>>>>>>>>>>>>>>>>>>>>>>> KEY <<<<<<<<<<<<<<<<<<<<<<<<<<<




USA.gov is the U.S. government's official web portal to all federal, state and local government web resources and services.